Content
SEND FEEDBACK

Daily
Averages
Monthly
Summary
United States of America

ALTMAR, NEW YORK


Home > North America > United States > New York
Elevation: 660 feet     Latitude: 43 33N     Longitude: 075 55W

WEATHER
 
SELECT A DAY
Number of Records: 213,764;   Date Range: 5/22/97 - 10/21/14
 
SHARE

PRINT THIS DATA

[ ← Previous Day ]
WEATHER ALMANAC - FEBRUARY 13, 2013
[ Next Day → ]
[ °C ]   °F
Weather ElementAverageHighLow
Temperature29.9 °F37 °F (3:54 pm)21 °F (9:54 pm)
Dewpoint20.8 °F24.1 °F (6:54 am)17.1 °F (3:54 pm)
Humidity70.1 %92 % (11:54 pm)44 % (3:54 pm)
Barometer29.82 in29.91 in (1:54 am)29.75 in (4:54 pm)
Wind Speed4.2 mph10.4 mph (4:54 pm)
Weather ElementAverage
Visibility9.7 mi
Wind DirectionSSE (153 °)

Weather ElementTotal
Precipitation---
Heating Degree Days36 (Base 65)
Averaged from 23 records on February 13, 2013
WEATHER CONDITIONS BREAKOUT
WIND DIRECTION BREAKOUT
WEATHER BY HOUR - FEBRUARY 13, 2013
[ °C ]   °F
Local TimeTemperatureDewpointHumidityBarometerVisibilityWind DirectionWind SpeedGust SpeedPrecipitationEventsConditions
1:54 AM30.9 °F21.9 °F69 %29.91 in10.0 miWSW (240°)9.2 mph0.00 inOvercast
2:54 AM30.9 °F21.9 °F69 %29.90 in10.0 miSW (230°)6.9 mphOvercast
3:54 AM30.9 °F21.0 °F67 %29.89 in10.0 miSW (220°)5.8 mphOvercast
4:54 AM30.0 °F21.9 °F72 %29.88 in10.0 miSW (220°)5.8 mphOvercast
5:54 AM30.0 °F21.9 °F72 %29.88 in10.0 miSSW (210°)5.8 mphOvercast
6:54 AM30.0 °F24.1 °F79 %29.88 in10.0 miSSW (200°)4.6 mphOvercast
7:54 AM30.0 °F23.0 °F75 %29.88 in10.0 miSW (220°)3.5 mphOvercast
8:54 AM30.0 °F23.0 °F75 %29.86 in10.0 miSW (230°)3.5 mphOvercast
9:54 AM32.0 °F21.9 °F66 %29.85 in10.0 miWSW (250°)4.6 mphClear
10:54 AM33.1 °F21.0 °F61 %29.84 in10.0 miWSW (250°)8.1 mphMostly Cloudy
11:54 AM34.0 °F21.0 °F59 %29.82 in10.0 miWest (260°)8.1 mphMostly Cloudy
12:54 PM34.0 °F19.9 °F56 %29.79 in10.0 miSSW (210°)5.8 mphMostly Cloudy
1:54 PM35.1 °F19.0 °F52 %29.78 in10.0 miWSW (240°)4.6 mphMostly Cloudy
2:54 PM35.1 °F19.0 °F52 %29.76 in10.0 miSW (220°)4.6 mphClear
3:54 PM37.0 °F17.1 °F44 %29.76 in10.0 miCalmPartly Cloudy
4:54 PM34.0 °F21.9 °F61 %29.75 in10.0 miNW (310°)10.4 mphClear
5:54 PM28.9 °F21.0 °F72 %29.75 in10.0 miNorth (10°)4.6 mphClear
6:54 PM28.0 °F21.9 °F78 %29.75 in10.0 miCalmClear
7:54 PM27.0 °F21.9 °F81 %29.77 in10.0 miCalmClear
8:54 PM23.0 °F19.9 °F88 %29.77 in10.0 miCalmClear
9:54 PM21.0 °F18.0 °F88 %29.78 in8.0 miCalmClear
10:54 PM21.9 °F18.0 °F85 %29.78 in8.0 miCalmClear
11:54 PM21.0 °F19.0 °F92 %29.79 in6.0 miCalmMostly Cloudy
Hourly data recorded from KFZY, located miles away from Altmar, New York







STORIES FROM OUR PARTNERS